Location: Pompeys Pillar
(45.9913°N, 107.9528°W)
Time: 14:50:00
(UTC+00:00)

Tiangong - Pass Details

Date: 05 June 2023
Orbit: 373 x 384 km, 41.5° (Epoch: 27 September)

Event Time Altitude Azimuth Distance (km) Brightness Sun altitude
Exits shadow 08:11:26 - 105° (ESE) 2,142 1.6 -20.1°
Enters shadow 09:09:59 -64° 256° (WSW) 11,853 5.3 -16.3°
Maximum altitude 09:44:32 23° 162° (SSE) 878 -0.7 -13.1°
